This demonstration page uses our WeatherBlox Daily Observations layout. Learn more.

Left ArrowRight Arrow

Hourly Observations for September 23, 2021

Temp ( °F °C ) Dew Point ( °F °C ) Humidity (%) Winds ( mph kmh ) Pressure ( in mb ) Visibility ( mi km ) Precip ( " mm )
12:53 am 00:53 Clear 61 16.1 31 -0.6 32 32 SE 9 15 30.07 1018 10 16 0.00 0.00
1:53 am 01:53 Clear 58 14.4 30 -1.1 35 35 SE 8 13 30.06 1018 10 16 0.00 0.00
2:53 am 02:53 Clear 58 14.4 30 -1.1 35 35 SE 8 13 30.05 1018 10 16 0.00 0.00
3:53 am 03:53 Clear 55 12.8 30 -1.1 38 38 ESE 7 11 30.04 1017 10 16 0.00 0.00
4:53 am 04:53 Clear 58 14.4 29 -1.7 33 33 ESE 8 13 30.02 1017 10 16 0.00 0.00
5:53 am 05:53 Clear 59 15 29 -1.7 32 32 ESE 13 20 30.01 1016 10 16 0.00 0.00
6:53 am 06:53 Clear 58 14.4 29 -1.7 33 33 ESE 12 19 30.01 1016 10 16 0.00 0.00
7:53 am 07:53 Sunny 58 14.4 30 -1.1 35 35 ESE 13 20 30.02 1017 10 16 0.00 0.00
8:53 am 08:53 Sunny 62 16.7 30 -1.1 30 30 SE 16 26 30.03 1017 10 16 0.00 0.00
9:53 am 09:53 Sunny 68 20 30 -1.1 24 24 SE 18 30 30.02 1017 10 16 0.00 0.00
10:53 am 10:53 Sunny 74 23.3 31 -0.6 20 20 SSE 18 30 30.02 1017 10 16 0.00 0.00
11:53 am 11:53 Sunny 78 25.6 33 0.6 19 19 SSE 17 28 30.01 1016 10 16 0.00 0.00
12:53 pm 12:53 Sunny 82 27.8 34 1.1 18 18 SSE 15 24 29.98 1015 10 16 0.00 0.00
1:53 pm 13:53 Sunny 86 30 36 2.2 17 17 SE 13 20 29.95 1014 10 16 0.00 0.00
2:53 pm 14:53 Sunny 86 30 36 2.2 17 17 VRB 5 7 29.92 1013 10 16 0.00 0.00
3:53 pm 15:53 Sunny 87 30.6 36 2.2 16 16 SSE 12 19 29.89 1012 10 16 0.00 0.00
4:53 pm 16:53 Sunny 89 31.7 35 1.7 15 15 S 10 17 29.86 1011 10 16 0.00 0.00
5:53 pm 17:53 Sunny 87 30.6 35 1.7 16 16 SSE 13 20 29.86 1011 10 16 0.00 0.00
6:53 pm 18:53 Sunny 86 30 34 1.1 15 15 SE 13 20 29.86 1011 10 16 0.00 0.00
7:53 pm 19:53 Clear 82 27.8 34 1.1 18 18 SE 10 17 29.87 1011 10 16 0.00 0.00
8:53 pm 20:53 Clear 77 25 36 2.2 23 23 SE 10 17 29.88 1012 10 16 0.00 0.00
9:53 pm 21:53 Clear 75 23.9 36 2.2 24 24 SE 13 20 29.89 1012 10 16 0.00 0.00
10:53 pm 22:53 Clear 73 22.8 34 1.1 24 24 SE 14 22 29.90 1012 10 16 0.00 0.00
11:53 pm 23:53 Clear 71 21.7 32 0 24 24 SE 12 19 29.91 1013 10 16 0.00 0.00

Powered by AerisWeather